East Coast - north of Cape St. Francis: Past 24 Hour Conditions

 

Charlottetown Airport

09:00 PM ADT 29 July 2014
This table is a summary of hourly weather conditions for the past 24 hours.
Date / Time
(ADT)
Wind(knots) Conditions Visibility(km) Pressure(kPa) Air tempC) Relative humidity(%) Dew pointC) Humidex
29 July 2014
21:00 WSW 8 Mostly Cloudy 24 101.3 20 75 16 *
20:00 SW 10 Mostly Cloudy 24 101.2 22 73 17 28
19:00 SSW 14 gust 21 Mostly Cloudy 24 101.1 24 68 18 30
18:00 S 16 gust 23 Mostly Cloudy 24 101.0 25 64 18 31
17:00 S 19 gust 27 Mostly Cloudy 24 100.9 26 61 18 31
16:00 S 17 gust 23 Mostly Cloudy 24 100.8 27 59 18 33
15:00 SSW 20 gust 26 Partly Cloudy 24 100.8 27 58 18 32
14:00 S 19 gust 26 Partly Cloudy 24 100.8 27 63 19 34
13:00 S 22 gust 29 Partly Cloudy 24 100.7 26 68 19 33
12:00 S 20 gust 32 Partly Cloudy 24 100.7 25 75 20 32
11:00 S 20 gust 26 Partly Cloudy 24 100.7 24 80 20 31
10:00 S 14 gust 25 Mostly Cloudy 24 100.7 22 85 19 29
9:00 S 17 gust 23 Mostly Cloudy 24 100.7 23 84 20 30
8:00 S 14 gust 26 Cloudy 19 100.7 21 89 19 28
7:00 S 13 gust 19 Cloudy 19 100.6 21 89 19 28
6:00 S 16 gust 22 Cloudy 19 100.5 21 83 18 27
5:00 SSE 12 Mostly Cloudy 19 100.5 22 86 19 29
4:00 SSE 17 Mostly Cloudy 19 100.5 22 93 20 29
3:00 SSE 12 gust 19 Mostly Cloudy 19 100.5 22 93 21 30
2:00 SE 11 gust 17 Mostly Cloudy 16 100.5 22 91 21 31
1:00 SE 11 gust 18 Mostly Cloudy 19 100.6 22 92 21 30
0:00 SE 14 Mostly Cloudy 19 100.7 22 90 20 30
28 July 2014
23:00 SE 12 gust 20 Mostly Cloudy 24 100.7 22 88 20 29
22:00 SE 13 gust 22 Mostly Cloudy 24 100.8 23 84 20 30
21:00 SSE 15 gust 20 Mostly Cloudy 19 100.8 23 83 20 31
 
Map of Atlantic - Newfoundland marine weather areas Southwestern Grand Banks - 44138 Banquereau - 44139 Tail of the Bank - 44140 Nickerson Bank - 44251 Northeast Burgeo Bank - 44255 Blanc-Sablon Airport Cap Whittle Chevery Natashquan Airport Heath Point Miscou Island Grand Étang Ingonish Beach North Mountain St.Paul Island J.A. Douglas McCurdy Sydney Airport Charlottetown Airport East Point North Cape Argentia Bonavista Burgeo Cape Race Corner Brook Daniel's Harbour Englee Ferolle Point La Scie Port aux Basques Rocky Harbour Sagona Island St. Anthony Airport St. John's Int'l Airport St. Lawrence Stephenville Airport Twillingate Winterland Wreckhouse Cartwright Airport Mary's Harbour Grates Cove Pool's Island Marticot Island Long Pond Îles de la Madeleine Airport
Legend: buoyBuoy land stationLand Station